This demonstration page uses our WeatherBlox Daily Observations layout. Learn more.

Left ArrowRight Arrow

39.08367, -84.50855

Hourly Observations for August 27, 2015

Temp ( °F °C ) Dew Point ( °F °C ) Humidity (%) Winds ( mph kmh ) Pressure ( in mb ) Visibility ( mi km ) Precip ( " mm )
12:53 am 00:53 Cloudy 61 16.1 60 15.6 97 97 N N/A 30.14 1021 10 16 N/A
1:53 am 01:53 Cloudy 62 16.7 60 15.6 93 93 N N/A 30.15 1021 10 16 N/A
2:53 am 02:53 Cloudy 62 16.7 60 15.6 93 93 N N/A 30.14 1021 10 16 N/A
3:53 am 03:53 Cloudy 62 16.7 60 15.6 93 93 N N/A 30.14 1021 10 16 N/A
4:53 am 04:53 Cloudy 62 16.7 60 15.6 93 93 N N/A 30.14 1021 10 16 N/A
5:53 am 05:53 Cloudy 61 16.1 59 15 93 93 NE 3 6 30.15 1021 10 16 N/A
6:53 am 06:53 Cloudy 61 16.1 59 15 93 93 N N/A 30.16 1021 10 16 N/A
7:53 am 07:53 Cloudy 61 16.1 60 15.6 97 97 N N/A 30.17 1022 10 16 N/A
8:53 am 08:53 Cloudy 63 17.2 61 16.1 93 93 N N/A 30.18 1022 10 16 N/A
9:53 am 09:53 Cloudy 66 18.9 59 15 78 78 N N/A 30.19 1023 10 16 N/A
10:53 am 10:53 Cloudy 69 20.6 58 14.4 68 68 N N/A 30.20 1023 10 16 N/A
11:53 am 11:53 Cloudy 72 22.2 58 14.4 61 61 N N/A 30.19 1023 10 16 N/A
12:53 pm 12:53 Mostly Cloudy 72 22.2 56 13.3 57 57 NNE 10 17 30.19 1022 10 16 N/A
1:53 pm 13:53 Mostly Cloudy 73 22.8 56 13.3 55 55 ESE 3 6 30.16 1021 10 16 N/A
2:53 pm 14:53 Mostly Cloudy 74 23.3 57 13.9 56 56 NE 8 13 30.14 1021 10 16 N/A
3:53 pm 15:53 Mostly Cloudy 75 23.9 56 13.3 52 52 N 3 6 30.13 1020 10 16 N/A
4:53 pm 16:53 Mostly Cloudy 75 23.9 57 13.9 54 54 ENE 5 7 30.14 1021 10 16 N/A
5:53 pm 17:53 Mostly Cloudy 75 23.9 56 13.3 52 52 NNE 3 6 30.13 1020 10 16 N/A
6:53 pm 18:53 Mostly Sunny 72 22.2 58 14.4 61 61 N N/A 30.13 1020 10 16 N/A
7:53 pm 19:53 Mostly Sunny 67 19.4 62 16.7 84 84 N N/A 30.13 1020 10 16 N/A
8:53 pm 20:53 Clear 63 17.2 60 15.6 90 90 N N/A 30.14 1021 10 16 N/A
9:53 pm 21:53 Clear 59 15 58 14.4 96 96 N N/A 30.16 1021 10 16 N/A
10:53 pm 22:53 Clear 59 15 58 14.4 96 96 N N/A 30.16 1021 10 16 N/A
11:53 pm 23:53 Clear 57 13.9 57 13.9 100 100 N N/A 30.14 1021 7 11 N/A

Powered by AerisWeather